Theta_e
317 322 323 322 323 324 325 326 327 329 329 331 334 333 330 329 328 330 336 337 337 336
312 313 313 317 319 320 323 325 326 325 325 326 325 330 334 331 331 335 337 336 336 337
309 311 313 312 312 312 314 316 319 320 322 323 324 328 326 325 327 327 331 335 336 336
310 311 311 311 312 313 313 313 313 316 317 318 321 325 324 324 324 324 326 328 333 333
309 310 310 310 313 312 313 313 314 315 316 316 316 316 320 322 324 323 323 324 324 324
308 308 309 310 311 312 312 312 313 314 316 316 317 316 317 319 319 318 320 321 322 323
306 307 307 308 309 310 311 311 311 312 313 314 315 315 315 313 312 312 313 316 320 322
307 307 308 308 308 310 310 310 312 313 312 312 313 312 308 309 310 310 311 313 315 318
309 308 308 309 310 309 311 311 311 311 311 311 314 309 307 308 307 309 310 309 312 313
311 311 311 309 308 308 309 309 308 308 310 310 310 309 306 307 308 310 310 310 312 314
311 311 310 307 307 306 307 306 306 307 308 308 311 309 306 307 308 311 311 311 313 314
310 309 308 305 304 305 305 304 305 306 307 308 309 308 304 306 307 310 310 310 310 309
310 306 305 305 304 305 305 306 307 308 308 309 309 308 306 305 306 308 307 306 307 302
305 305 304 305 305 304 304 305 305 306 307 308 308 308 303 301 303 307 304 305 305 305
Wind_Speed
8 6 6 5 5 5 5 3 4 5 6 6 6 4 3 5 4 7 10 10 7 5
7 7 8 9 8 7 7 7 8 9 9 7 6 4 5 4 7 11 9 8 7 5
6 7 6 6 7 7 6 9 9 9 10 11 11 11 5 3 4 4 5 4 7 6
6 7 6 6 5 5 5 6 6 7 8 9 10 8 7 8 7 8 7 7 6 6
5 5 6 6 6 7 6 6 6 6 5 5 6 8 5 6 6 7 8 8 6 5
4 5 5 6 7 6 6 7 6 6 8 8 6 5 7 5 5 6 5 6 8 8
3 4 5 5 6 6 6 6 6 6 6 7 9 6 5 6 6 5 6 7 8 8
6 5 5 6 7 7 6 6 6 6 6 6 6 3 4 4 5 7 7 7 8 7
7 6 7 7 7 7 6 6 6 7 7 7 6 7 4 1 3 4 5 6 7 8
6 6 6 6 4 6 6 5 5 6 6 7 7 12 6 3 3 4 5 6 6 8
6 4 5 4 5 4 4 5 6 6 7 7 7 13 8 7 4 5 6 5 6 7
5 5 5 5 4 4 5 5 4 5 7 7 8 11 10 6 5 5 6 6 7 5
5 7 6 5 5 4 4 5 5 7 6 7 7 8 8 7 4 5 4 6 5 7
8 8 7 5 4 5 6 6 7 7 7 7 5 6 12 13 5 4 4 5 5 4
Wind_Direction
14 18 14 38 49 34 19 348 336 322 316 317 295 236 219 221 250 237 238 233 207 206
10 25 25 23 24 17 11 3 353 2 348 327 336 24 160 212 231 242 251 246 260 262
12 14 21 21 19 17 8 6 360 0 356 353 6 357 1 8 270 296 281 242 231 233
356 0 5 11 6 1 353 358 358 351 353 359 353 1 354 342 8 9 350 349 319 293
351 354 358 352 348 358 355 345 330 342 350 347 345 342 1 355 9 12 5 351 357 4
333 345 349 349 340 345 346 351 347 2 348 336 326 327 331 21 9 360 354 346 352 339
293 314 327 333 328 331 332 352 342 351 347 345 336 343 29 3 360 5 351 346 342 343
240 258 280 292 294 300 317 326 329 321 327 325 330 351 358 0 350 343 337 336 330 334
235 244 261 269 271 284 301 309 318 329 316 307 309 307 261 60 327 318 306 308 318 305
245 233 254 250 292 336 344 350 336 327 320 316 309 302 258 266 297 296 305 302 298 296
32 10 334 6 35 356 351 320 311 313 308 309 308 313 265 256 279 294 299 304 298 286
6 4 31 14 348 320 332 321 301 303 302 315 310 322 273 282 297 293 298 306 314 355
24 13 342 325 333 305 325 309 318 308 304 298 304 315 299 282 269 280 294 305 323 42
15 356 331 343 333 321 325 321 312 310 309 314 325 350 357 351 323 2 338 339 332 1